This is the latest recevied weather packets stored in our database for station/object NC4M. If no packets are shown the sender has not sent any weather packets the latest 10 day(s).
| Time | Temp. | Humidity | Pressure | Rain* | Wind** | Luminosity | Snow |
|---|---|---|---|---|---|---|---|
| 1777944786 | 21.11° C | 58% | 1004.6 hPa | 0 mm | - | 0 W/m² | - |
| 1777944485 | 21.11° C | 57% | 1004.6 hPa | 0 mm | - | 0 W/m² | - |
| 1777944182 | 21.11° C | 56% | 1004.7 hPa | 0 mm | - | 0 W/m² | - |
| 1777943877 | 21.67° C | 55% | 1004.5 hPa | 0 mm | - | 0 W/m² | - |
| 1777943575 | 21.67° C | 55% | 1004.7 hPa | 0 mm | - | 0 W/m² | - |
| 1777943270 | 21.67° C | 53% | 1004.7 hPa | 0 mm | - | 1 W/m² | - |
| 1777942967 | 22.22° C | 52% | 1004.6 hPa | 0 mm | - | 1 W/m² | - |
| 1777942663 | 22.22° C | 50% | 1004.7 hPa | 0 mm | - | 2 W/m² | - |
| 1777942360 | 22.78° C | 49% | 1004.6 hPa | 0 mm | - | 3 W/m² | - |
| 1777942057 | 22.78° C | 48% | 1004.6 hPa | 0 mm | - | 5 W/m² | - |
| 1777941753 | 22.78° C | 48% | 1004.3 hPa | 0 mm | - | 8 W/m² | - |
| 1777941451 | 22.78° C | 48% | 1004.5 hPa | 0 mm | - | 11 W/m² | - |
| 1777941149 | 22.78° C | 50% | 1004.3 hPa | 0 mm | - | 15 W/m² | - |
| 1777940844 | 22.78° C | 49% | 1004.2 hPa | 0 mm | - | 16 W/m² | - |
| 1777940542 | 23.33° C | 49% | 1004.6 hPa | 0 mm | - | 17 W/m² | - |
| 1777940239 | 23.33° C | 48% | 1004.1 hPa | 0 mm | - | 20 W/m² | - |
| 1777939937 | 23.89° C | 47% | 1004.2 hPa | 0 mm | - | 24 W/m² | - |
| 1777939634 | 23.89° C | 46% | 1004.3 hPa | 0 mm | - | 28 W/m² | - |
| 1777939332 | 23.89° C | 46% | 1004.2 hPa | 0 mm | - | 25 W/m² | - |
| 1777939028 | 24.44° C | 44% | 1004.2 hPa | 0 mm | - | 31 W/m² | - |
| 1777938724 | 24.44° C | 45% | 1004 hPa | 0 mm | - | 47 W/m² | - |
| 1777938421 | 24.44° C | 45% | 1004.2 hPa | 0 mm | - | 49 W/m² | - |
| 1777938119 | 24.44° C | 44% | 1004.2 hPa | 0 mm | - | 38 W/m² | - |
| 1777937814 | 25° C | 44% | 1004.1 hPa | 0 mm | - | 48 W/m² | - |
| 1777937510 | 25° C | 45% | 1004 hPa | 0 mm | - | 66 W/m² | - |
* Rain latest hour (hover to see other rain measurements)
** Current wind speed in m/s (hover to see current wind gust speed)